[[{"header":{"parameterUnit":"m.s-1","parameterCategory":2,"la1":30.2991,"la2":30.254,"lo1":-89.0895,"lo2":-89.0444,"dy":0.0017,"dx":0.0017,"nx":28,"ny":28,"refTime":"2024-07-22T03:00:00:Z","depth":"0","parameterNumber":2,"parameterNumberName":"U-component_of_CURRENTS"},"data":[0,0,0,0,0,0,0,0,0,0,0,0,0,0,0,0,0,0,0,0,0,0,0,0,0,0,0,0,0,0,0,0,0,0,0,0,0,0,0,0,0,0,0,0,0,0,0,0,0,0,0,0,0,0,0,0,0,0,0.3467,0.3469,0,0.3658,0.366,0.3662,0.3721,0.372,0.3719,0.3719,0.387,0.3874,0.3879,0,0,0,0,0,0,0,0,0,0,0,0,0,0.3298,0.3299,0.3467,0.3469,0.3472,0.3658,0.366,0.3663,0.3721,0.372,0.3719,0.3718,0.3868,0.3874,0.3879,0,0,0,0,0,0,0,0,0,0,0,0,0,0.3416,0.33,0.3466,0.3524,0.3532,0.3657,0.366,0.3663,0.3721,0.372,0.3719,0.3718,0.3866,0.3873,0.388,0.3948,0,0,0.3902,0.3905,0,0,0,0,0,0,0,0,0.3409,0.3422,0.3513,0.3521,0.3529,0.3666,0.3656,0.3757,0.3722,0.3648,0.3719,0.3717,0.38,0.3812,0.3849,0.3955,0.3962,0.3903,0.3907,0.391,0.3912,0,0,0,0,0,0,0,0.3401,0.3415,0.3541,0.3516,0.3526,0.3591,0.3605,0.3677,0.3726,0.3654,0.3659,0.3683,0.3803,0.3842,0.3853,0.3964,0.3902,0.3909,0.3913,0.3916,0.4111,0.4112,0,0,0,0,0,0,0.3374,0.3407,0.3535,0.3547,0.3467,0.3595,0.361,0.3622,0.3726,0.3742,0.3684,0.3685,0.3831,0.3845,0.3858,0.3955,0.391,0.3917,0.3921,0.411,0.4111,0.4112,0,0,0,0,0,0,0.337,0.3383,0.3527,0.3483,0.3506,0.3598,0.3611,0.3626,0.3669,0.375,0.3764,0.3711,0.383,0.3848,0.3922,0.396,0.392,0.3926,0.4109,0.411,0.4112,0.414,0,0,0,0,0,0,0.3364,0.338,0.3387,0.3481,0.3508,0.3621,0.3613,0.3631,0.3686,0.3689,0.3778,0.3791,0.3831,0.3911,0.3929,0.3969,0.3932,0.4108,0.411,0.4111,0.4138,0.4143,0.4146,0,0,0,0,0,0.3357,0.3388,0.3386,0.3403,0.3511,0.3624,0.3645,0.3705,0.3688,0.3732,0.3768,0.3788,0.3934,0.3919,0.394,0.3982,0.4107,0.4109,0.4111,0.4137,0.4142,0.4146,0,0,0,0,0,0,0.3325,0.34,0.3399,0.345,0.3531,0.3634,0.3688,0.3707,0.3773,0.3769,0.3814,0.3832,0.3912,0.3937,0.3918,0.4038,0.4019,0.4025,0.4031,0.4037,0.4041,0.4055,0.3938,0,0,0,0,0,0.3315,0.3356,0.3435,0.348,0.3519,0.3594,0.3645,0.3683,0.3752,0.3779,0.3831,0.3879,0.394,0.3976,0.4039,0.4112,0.4155,0.4146,0.415,0.4153,0.4177,0.4282,0.4299,0.4119,0.4119,0.4119,0,0,0.332,0.3364,0.3389,0.3476,0.3541,0.3627,0.3623,0.3713,0.3779,0.3786,0.3882,0.3908,0.3962,0.4045,0.4081,0.4069,0.4219,0.4156,0.4158,0.4181,0.4286,0.4304,0.432,0.412,0.412,0.412,0,0,0.3382,0.3384,0.3455,0.3517,0.3614,0.366,0.368,0.3778,0.3817,0.3903,0.3916,0.3962,0.4057,0.4107,0.414,0.4205,0.424,0.4206,0.4244,0.4346,0.4362,0.4378,0.4423,0.4443,0.4204,0.4204,0.4204,0,0.3376,0.3466,0.3498,0.3585,0.3638,0.3671,0.376,0.382,0.3923,0.3943,0.3937,0.4051,0.4098,0.4188,0.4206,0.4221,0.4259,0.4223,0.4354,0.437,0.4385,0.4429,0.445,0.4205,0.4205,0.4205,0.4205,0,0.3514,0.3569,0.3621,0.3721,0.378,0.3865,0.3932,0.3979,0.3995,0.4034,0.4111,0.4167,0.4223,0.4241,0.4252,0.4364,0.4349,0.4352,0.4346,0.4406,0.4446,0.4468,0.4208,0.4207,0.4207,0.4206,0,0,0.3527,0.3684,0.3701,0.3741,0.3849,0.3904,0.3997,0.4078,0.4109,0.4179,0.4233,0.4324,0.4308,0.4345,0.4357,0.4439,0.4568,0.4438,0.4442,0.4489,0.476,0.4579,0.4584,0.4596,0.46,0.4604,0.4734,0,0.362,0.3788,0.3842,0.3958,0.403,0.4055,0.4127,0.4183,0.422,0.4275,0.4313,0.4376,0.4363,0.438,0.4465,0.4549,0.463,0.453,0.469,0.4694,0.4533,0.4606,0.4292,0.4368,0.4755,0.4758,0.4761,0,0.373,0.3818,0.3966,0.4035,0.4066,0.4124,0.418,0.4254,0.432,0.4346,0.4394,0.4417,0.4528,0.4512,0.4702,0.4636,0.4709,0.4768,0.4775,0.4618,0.4554,0.4377,0.4392,0.4235,0.4794,0.4791,0.4789,0,0.3722,0.3877,0.3982,0.4021,0.4129,0.4155,0.4196,0.4259,0.4302,0.4388,0.4412,0.4523,0.4582,0.4713,0.4806,0.4778,0.5008,0.4984,0.4888,0.4874,0.4646,0.4603,0.4535,0.5147,0.5146,0.5146,0.5146,0,0.3781,0.3846,0.3975,0.4024,0.4095,0.4149,0.4206,0.4258,0.4322,0.4373,0.4436,0.4498,0.4645,0.476,0.4852,0.4919,0.505,0.4916,0.4913,0.4638,0.4595,0.4477,0.4459,0.5151,0.515,0.5149,0.5148,0,0.376,0.3862,0.3957,0.407,0.4099,0.4138,0.4207,0.4239,0.4302,0.4378,0.4408,0.4518,0.4655,0.4768,0.4978,0.4949,0.4891,0.5052,0.468,0.4628,0.4316,0.4312,0.4189,0.4096,0.4949,0.4946,0.4943,0,0.3777,0.3836,0.3976,0.4017,0.4066,0.4126,0.4164,0.4233,0.4271,0.4386,0.4423,0.4547,0.462,0.4792,0.478,0.4862,0.4791,0.4599,0.4486,0.4265,0.4263,0.4159,0.4086,0.4196,0.4187,0.418,0.4174,0,0.3786,0.3837,0.3923,0.4016,0.4065,0.4114,0.417,0.4191,0.4275,0.4309,0.4394,0.4457,0.4548,0.4444,0.4475,0.4489,0.4302,0.4448,0.4345,0.3769,0.3534,0.345,0.4126,0.411,0.4116,0.4121,0.4124,0.4127,0.3785,0.3835,0.3947,0.4012,0.406,0.4078,0.4054,0.4098,0.4117,0.4098,0.4268,0.4223,0.4131,0.4095,0.4087,0.3734,0.39,0.3562,0.361,0.3552,0.3337,0.3833,0.3729,0.3733,0.3737,0.374,0.3743,0,0.3805,0.3861,0.3926,0.3992,0.3979,0.402,0.4034,0.3941,0.3888,0.3909,0.3913,0.3695,0.3497,0.34,0.3065,0.2907,0.2826,0.2819,0.2614,0.262,0.3149,0.2982,0.2555,0.2555,0.2555,0.2556,0.2556,0.2556,0.3826,0.3899,0.3924,0.3902,0.3894,0.3794,0.3751,0.3619,0.3565,0.3317,0.3137,0.3107,0.2965,0.2649,0.2331,0.2274,0.2174,0.2003,0.2178,0.2526,0.2598,0.2667,0.2502,0.1982,0.1982,0.1443,0.1439,0.1436]},{"header":{"parameterUnit":"m.s-1","parameterCategory":2,"la1":30.2991,"la2":30.254,"lo1":-89.0895,"lo2":-89.0444,"dy":0.0017,"dx":0.0017,"nx":28,"ny":28,"refTime":"2024-07-22T03:00:00:Z","depth":"0","parameterNumber":3,"parameterNumberName":"V-component_of_CURRENTS"},"data":[0,0,0,0,0,0,0,0,0,0,0,0,0,0,0,0,0,0,0,0,0,0,0,0,0,0,0,0,0,0,0,0,0,0,0,0,0,0,0,0,0,0,0,0,0,0,0,0,0,0,0,0,0,0,0,0,0,0,-0.0254,-0.0255,0,-0.0382,-0.0384,-0.0385,-0.0438,-0.0437,-0.0437,-0.0437,-0.0514,-0.0517,-0.0519,0,0,0,0,0,0,0,0,0,0,0,0,0,-0.0125,-0.0127,-0.0254,-0.0255,-0.0257,-0.0382,-0.0384,-0.0386,-0.0438,-0.0437,-0.0437,-0.0437,-0.0513,-0.0516,-0.0519,0,0,0,0,0,0,0,0,0,0,0,0,0,-0.021,-0.0127,-0.0253,-0.0297,-0.0303,-0.0382,-0.0384,-0.0386,-0.0438,-0.0437,-0.0437,-0.0436,-0.0513,-0.0516,-0.0519,-0.0551,0,0,-0.053,-0.0532,0,0,0,0,0,0,0,0,-0.0205,-0.0215,-0.0289,-0.0295,-0.0301,-0.0393,-0.0367,-0.0439,-0.0438,-0.0387,-0.0437,-0.0436,-0.0469,-0.0476,-0.0503,-0.0555,-0.0558,-0.0531,-0.0533,-0.0534,-0.0535,0,0,0,0,0,0,0,-0.0199,-0.021,-0.0305,-0.0291,-0.0298,-0.0336,-0.0347,-0.0381,-0.0429,-0.0392,-0.0396,-0.0409,-0.0472,-0.0499,-0.0505,-0.0559,-0.0531,-0.0534,-0.0536,-0.0537,-0.0549,-0.0547,0,0,0,0,0,0,-0.018,-0.0204,-0.0301,-0.0309,-0.025,-0.0338,-0.035,-0.0364,-0.043,-0.0439,-0.041,-0.0411,-0.0494,-0.0501,-0.0508,-0.049,-0.0534,-0.0538,-0.054,-0.0551,-0.0548,-0.0546,0,0,0,0,0,0,-0.0176,-0.0187,-0.0296,-0.0259,-0.0275,-0.034,-0.0356,-0.0367,-0.0389,-0.0444,-0.0452,-0.0419,-0.0493,-0.0503,-0.0522,-0.0495,-0.0539,-0.0542,-0.0553,-0.055,-0.0547,-0.0491,0,0,0,0,0,0,-0.0172,-0.0185,-0.0191,-0.0258,-0.0277,-0.0333,-0.0357,-0.037,-0.0398,-0.0401,-0.0455,-0.0462,-0.0494,-0.0517,-0.0526,-0.0501,-0.0545,-0.0555,-0.0551,-0.0548,-0.0495,-0.0487,-0.048,0,0,0,0,0,-0.0167,-0.0177,-0.0191,-0.0203,-0.0282,-0.0333,-0.0346,-0.0391,-0.0399,-0.0408,-0.0434,-0.046,-0.05,-0.0519,-0.053,-0.0505,-0.0557,-0.0552,-0.0548,-0.0499,-0.0489,-0.048,0,0,0,0,0,0,-0.0128,-0.0185,-0.0202,-0.0229,-0.0272,-0.0341,-0.0359,-0.0385,-0.0418,-0.0414,-0.0458,-0.0468,-0.0469,-0.0492,-0.0512,-0.0492,-0.0524,-0.0522,-0.0482,-0.0473,-0.0465,-0.0414,-0.0548,0,0,0,0,0,-0.012,-0.0141,-0.0198,-0.022,-0.0237,-0.0294,-0.0321,-0.0348,-0.0387,-0.0401,-0.0435,-0.0454,-0.0463,-0.0472,-0.0492,-0.0498,-0.0454,-0.0479,-0.0471,-0.0464,-0.0426,-0.0297,-0.0273,-0.0533,-0.0533,-0.0533,0,0,-0.0113,-0.0146,-0.0159,-0.0212,-0.0249,-0.0275,-0.0309,-0.0342,-0.0354,-0.0403,-0.0422,-0.0437,-0.0457,-0.0456,-0.0457,-0.0473,-0.0379,-0.0459,-0.0454,-0.0418,-0.029,-0.0265,-0.0242,-0.053,-0.0531,-0.0531,0,0,-0.0108,-0.0133,-0.0149,-0.0179,-0.0227,-0.0258,-0.0261,-0.0319,-0.0331,-0.0357,-0.0374,-0.0355,-0.041,-0.0392,-0.0395,-0.035,-0.0342,-0.0367,-0.0291,-0.0167,-0.0144,-0.0123,-0.0085,-0.0061,-0.0362,-0.0362,-0.0362,0,-0.0093,-0.0126,-0.0161,-0.0183,-0.02,-0.0243,-0.0256,-0.028,-0.0334,-0.0316,-0.0349,-0.033,-0.0363,-0.0305,-0.0296,-0.0328,-0.0284,-0.0334,-0.0154,-0.0132,-0.0111,-0.0076,-0.005,-0.0359,-0.036,-0.036,-0.036,0,-0.0107,-0.0128,-0.0137,-0.0173,-0.0191,-0.0211,-0.024,-0.0242,-0.0257,-0.0266,-0.0216,-0.0235,-0.0204,-0.0219,-0.0258,-0.0128,-0.0158,-0.016,-0.0175,-0.0081,-0.0053,-0.0026,-0.0355,-0.0356,-0.0357,-0.0357,0,0,-0.0082,-0.0136,-0.0138,-0.0145,-0.0184,-0.0196,-0.0189,-0.0182,-0.0136,-0.0158,-0.0075,-0.009,-0.0063,-0.0059,-0.0075,0.0014,0.0155,-0.0013,-0.0008,0.0028,0.0383,0.0286,0.0304,0.0193,0.0199,0.0204,0.0325,0,-0.008,-0.011,-0.0134,-0.0142,-0.0153,-0.0162,-0.0142,-0.0128,-0.0107,-0.0036,0.0003,0.0058,-0.0014,0.0024,0.0107,0.0164,0.0237,0.012,0.0284,0.0288,0.0196,0.0337,0.0321,0.0423,0.035,0.0355,0.0358,0,-0.0082,-0.0101,-0.0113,-0.0106,-0.0106,-0.0105,-0.0038,-0.0027,0.0065,0.0096,0.0184,0.0214,0.0333,0.0269,0.0439,0.037,0.0385,0.0415,0.042,0.0344,0.0244,0.0329,0.0474,0.0374,0.0398,0.0395,0.0392,0,-0.0046,-0.0076,-0.0078,-0.0086,-0.0089,-0.0063,-0.0046,0.0024,0.0086,0.0207,0.0298,0.0413,0.0515,0.0589,0.0604,0.0555,0.079,0.0731,0.0649,0.0638,0.0667,0.0648,0.075,0.0873,0.0873,0.0872,0.0872,0,-0.0033,-0.003,-0.0061,-0.0063,-0.0017,-0.0027,0.0065,0.0099,0.0217,0.0348,0.0383,0.0537,0.0617,0.073,0.0709,0.0766,0.0878,0.071,0.0703,0.0673,0.0656,0.0599,0.0524,0.0877,0.0876,0.0875,0.0874,0,0.0009,-0.0023,-0.0014,-0.0013,-0.0004,0.0035,0.0121,0.0212,0.0291,0.0482,0.0538,0.0697,0.0846,0.0863,0.0999,0.0913,0.0904,0.0927,0.0832,0.0811,0.0603,0.0531,0.065,0.0625,0.0887,0.0886,0.0885,0,0.0023,0.0023,0.0033,0.0063,0.0065,0.0121,0.0189,0.025,0.0365,0.0591,0.0716,0.089,0.1056,0.1159,0.1063,0.1024,0.0919,0.0911,0.0815,0.0636,0.0553,0.0506,0.0473,0.0856,0.0855,0.0854,0.0853,0,0.0066,0.0071,0.0086,0.0143,0.0199,0.0279,0.0376,0.0475,0.0604,0.078,0.1033,0.1179,0.1243,0.1242,0.1111,0.1045,0.0828,0.0886,0.0797,0.0631,0.0506,0.046,0.0654,0.0845,0.0846,0.0847,0.0847,0.0847,0.0118,0.0147,0.0175,0.0238,0.032,0.0449,0.0553,0.0694,0.0899,0.1178,0.127,0.1518,0.1379,0.1233,0.1089,0.0758,0.0786,0.0656,0.0608,0.0595,0.0514,0.0627,0.0736,0.0736,0.0737,0.0737,0.0737,0,0.0173,0.0206,0.0272,0.0364,0.0493,0.0508,0.0698,0.0833,0.1102,0.1352,0.1576,0.1656,0.147,0.1203,0.0747,0.0527,0.0473,0.0416,0.0387,0.0387,0.0596,0.0531,0.0486,0.0486,0.0486,0.0486,0.0486,0.0487,0.0209,0.0268,0.0297,0.0494,0.0588,0.0769,0.0892,0.1095,0.1297,0.1606,0.1769,0.1877,0.1645,0.0887,0.0399,0.0299,0.0185,0.0143,0.0104,0.0239,0.0258,0.0277,0.0202,0.0089,0.0088,-0.0064,-0.0066,-0.0068]}],[{"header":{"parameterUnit":"m.s-1","parameterCategory":2,"la1":30.2991,"la2":30.254,"lo1":-89.0895,"lo2":-89.0444,"dy":0.0017,"dx":0.0017,"nx":28,"ny":28,"refTime":"2024-07-22T03:00:00:Z","depth":"2","parameterNumber":2,"parameterNumberName":"U-component_of_CURRENTS"},"data":[0,0,0,0,0,0,0,0,0,0,0,0,0,0,0,0,0,0,0,0,0,0,0,0,0,0,0,0,0,0,0,0,0,0,0,0,0,0,0,0,0,0,0,0,0,0,0,0,0,0,0,0,0,0,0,0,0,0,0.2194,0.2193,0,0.2204,0.2205,0.2206,0.2306,0.2308,0.2309,0.2311,0.2413,0.2414,0.2415,0,0,0,0,0,0,0,0,0,0,0,0,0,0.2234,0.2234,0.2194,0.2193,0.2193,0.2204,0.2205,0.2206,0.2306,0.2308,0.231,0.2312,0.2413,0.2414,0.2416,0,0,0,0,0,0,0,0,0,0,0,0,0,0.2236,0.2234,0.2194,0.2238,0.2241,0.2204,0.2205,0.2206,0.2305,0.2308,0.231,0.2313,0.2413,0.2414,0.2416,0.2372,0,0,0.2421,0.2421,0,0,0,0,0,0,0,0,0.2235,0.2235,0.2232,0.2235,0.2238,0.225,0.2256,0.2264,0.2304,0.2289,0.2311,0.2314,0.236,0.2366,0.2372,0.2377,0.2381,0.2421,0.2422,0.2422,0.2423,0,0,0,0,0,0,0,0.2235,0.2235,0.2206,0.2231,0.2235,0.2248,0.2252,0.2258,0.2317,0.2291,0.2296,0.2284,0.2364,0.237,0.2375,0.2383,0.2421,0.2422,0.2423,0.2424,0.2545,0.2547,0,0,0,0,0,0,0.2216,0.2234,0.2205,0.2205,0.2235,0.2244,0.225,0.225,0.2315,0.2325,0.2282,0.2288,0.2366,0.2373,0.2379,0.2501,0.2422,0.2424,0.2425,0.2543,0.2545,0.2548,0,0,0,0,0,0,0.2217,0.2214,0.2205,0.2214,0.2212,0.224,0.224,0.2248,0.2285,0.2306,0.232,0.2312,0.2369,0.2377,0.2439,0.25,0.2425,0.2426,0.254,0.2543,0.2547,0.2636,0,0,0,0,0,0,0.2219,0.2215,0.2209,0.2212,0.2211,0.2226,0.2237,0.2246,0.2267,0.2278,0.2335,0.2346,0.2371,0.2437,0.2441,0.25,0.2427,0.2537,0.2542,0.2546,0.263,0.2642,0.2652,0,0,0,0,0,0.222,0.2184,0.2209,0.2205,0.2203,0.2226,0.223,0.2262,0.2266,0.2301,0.2344,0.2346,0.2468,0.244,0.2444,0.2505,0.2535,0.254,0.2545,0.2625,0.264,0.2652,0,0,0,0,0,0,0.2194,0.2191,0.2218,0.2185,0.223,0.2242,0.2247,0.2266,0.232,0.2342,0.2362,0.2377,0.2463,0.2458,0.2427,0.2554,0.2505,0.2512,0.2565,0.2579,0.2589,0.2585,0.2429,0,0,0,0,0,0.2184,0.2185,0.2195,0.2194,0.2199,0.223,0.2237,0.2278,0.2314,0.2341,0.238,0.2425,0.2477,0.2508,0.2552,0.2597,0.263,0.2644,0.2655,0.2664,0.2664,0.2788,0.2811,0.2564,0.2564,0.2564,0,0,0.2192,0.2178,0.2191,0.2193,0.222,0.2252,0.2246,0.2284,0.2337,0.234,0.2425,0.2465,0.2498,0.2583,0.2619,0.2591,0.2752,0.267,0.2678,0.2673,0.2796,0.282,0.2842,0.2568,0.2567,0.2567,0,0,0.2195,0.2185,0.2191,0.222,0.2254,0.2278,0.2293,0.2335,0.2382,0.2459,0.2486,0.2559,0.2622,0.2673,0.2698,0.2782,0.281,0.2801,0.2851,0.2973,0.2994,0.3013,0.3089,0.3114,0.2803,0.2803,0.2803,0,0.2206,0.2205,0.2205,0.2218,0.2241,0.2292,0.2329,0.2376,0.2451,0.2485,0.2513,0.2636,0.2671,0.2758,0.2808,0.281,0.287,0.2799,0.2989,0.3009,0.3027,0.31,0.3126,0.2808,0.2808,0.2807,0.2807,0,0.2205,0.2233,0.2236,0.2283,0.2313,0.2358,0.2413,0.2475,0.2531,0.258,0.2694,0.2758,0.2836,0.2863,0.2866,0.3004,0.3001,0.2995,0.2957,0.3058,0.3127,0.3154,0.2815,0.2813,0.2812,0.2811,0,0,0.2186,0.2229,0.2247,0.2288,0.2352,0.2384,0.2466,0.2544,0.259,0.2708,0.2776,0.2899,0.2941,0.2972,0.2999,0.3092,0.3279,0.3104,0.3109,0.318,0.3538,0.3253,0.3254,0.3324,0.3329,0.3333,0.3535,0,0.221,0.225,0.2263,0.2358,0.239,0.2453,0.2514,0.26,0.2676,0.2757,0.2853,0.294,0.2981,0.3029,0.3146,0.3228,0.3353,0.3223,0.3427,0.3432,0.3168,0.3276,0.2984,0.3114,0.3561,0.3565,0.3568,0,0.2218,0.2237,0.2306,0.2393,0.2409,0.2466,0.2563,0.2631,0.274,0.28,0.2919,0.2985,0.3138,0.3156,0.3417,0.3341,0.3467,0.3534,0.3544,0.3259,0.3195,0.3085,0.3145,0.3612,0.3609,0.3606,0.3603,0,0.2217,0.2289,0.2344,0.2374,0.2454,0.2497,0.2553,0.2648,0.2702,0.2831,0.2898,0.3069,0.3194,0.3366,0.3511,0.3508,0.376,0.3773,0.3644,0.3625,0.3398,0.3346,0.4,0.4,0.3999,0.3999,0.3998,0,0.224,0.2302,0.2347,0.2378,0.242,0.2494,0.256,0.2624,0.2729,0.282,0.2933,0.3052,0.327,0.3421,0.3543,0.3637,0.3817,0.3663,0.3664,0.3413,0.3363,0.3801,0.3776,0.4006,0.4005,0.4003,0.4002,0,0.2261,0.2311,0.2346,0.2401,0.2422,0.2454,0.2546,0.2602,0.2707,0.2834,0.289,0.3102,0.3288,0.3415,0.3677,0.3667,0.3765,0.3768,0.3409,0.3359,0.3557,0.3534,0.3672,0.3663,0.3656,0.3651,0.3646,0,0.2266,0.2285,0.2319,0.2337,0.2366,0.2423,0.247,0.2574,0.2653,0.2876,0.2953,0.3147,0.3246,0.3407,0.3418,0.3485,0.3666,0.3242,0.3156,0.3539,0.3529,0.3516,0.3503,0.2936,0.2925,0.2917,0.291,0,0.2234,0.2252,0.2279,0.2265,0.2309,0.2358,0.2454,0.25,0.2671,0.2748,0.2907,0.2977,0.3126,0.3018,0.302,0.3044,0.3168,0.3062,0.3639,0.299,0.284,0.283,0.2844,0.2835,0.2843,0.2848,0.2852,0.2855,0.2197,0.2199,0.2204,0.2199,0.2235,0.2283,0.2322,0.2432,0.2484,0.26,0.2735,0.2726,0.2762,0.2582,0.2529,0.2488,0.2735,0.264,0.2671,0.2711,0.2515,0.2353,0.2222,0.2225,0.2229,0.2232,0.2234,0,0.2159,0.2187,0.2147,0.2161,0.2161,0.2217,0.2308,0.2304,0.2352,0.2394,0.2428,0.2132,0.2022,0.21,0.1911,0.1869,0.1928,0.1806,0.1887,0.1959,0.2024,0.1799,0.1315,0.1312,0.131,0.1308,0,0,0.2166,0.2141,0.2107,0.2058,0.2108,0.2111,0.2163,0.2123,0.2096,0.1944,0.1876,0.1935,0.1987,0.1618,0.1551,0.1415,0.1692,0.1353,0.2082,0.2249,0.2312,0.2481,0.2209,0,0,0,0,0]},{"header":{"parameterUnit":"m.s-1","parameterCategory":2,"la1":30.2991,"la2":30.254,"lo1":-89.0895,"lo2":-89.0444,"dy":0.0017,"dx":0.0017,"nx":28,"ny":28,"refTime":"2024-07-22T03:00:00:Z","depth":"2","parameterNumber":3,"parameterNumberName":"V-component_of_CURRENTS"},"data":[0,0,0,0,0,0,0,0,0,0,0,0,0,0,0,0,0,0,0,0,0,0,0,0,0,0,0,0,0,0,0,0,0,0,0,0,0,0,0,0,0,0,0,0,0,0,0,0,0,0,0,0,0,0,0,0,0,0,0.0003,0.0003,0,-0.0037,-0.0037,-0.0038,-0.0097,-0.0098,-0.0098,-0.0099,-0.0183,-0.0185,-0.0186,0,0,0,0,0,0,0,0,0,0,0,0,0,0.0043,0.0042,0.0003,0.0003,0.0002,-0.0037,-0.0037,-0.0038,-0.0097,-0.0098,-0.0098,-0.0099,-0.0183,-0.0184,-0.0186,0,0,0,0,0,0,0,0,0,0,0,0,0,0.0014,0.0042,0.0003,-0.0029,-0.0032,-0.0036,-0.0038,-0.0039,-0.0096,-0.0098,-0.0099,-0.01,-0.0182,-0.0184,-0.0187,-0.0179,0,0,-0.0194,-0.0195,0,0,0,0,0,0,0,0,0.0015,0.0012,-0.0024,-0.0027,-0.003,-0.006,-0.0054,-0.0087,-0.0096,-0.0075,-0.0099,-0.01,-0.0143,-0.0149,-0.0158,-0.0183,-0.0186,-0.0194,-0.0195,-0.0196,-0.0197,0,0,0,0,0,0,0,0.0017,0.0013,-0.0016,-0.0024,-0.0028,-0.0036,-0.0042,-0.006,-0.0106,-0.0077,-0.0081,-0.008,-0.0146,-0.0155,-0.016,-0.0187,-0.0194,-0.0196,-0.0197,-0.0198,-0.0263,-0.0263,0,0,0,0,0,0,0.0029,0.0015,-0.0015,-0.0017,-0.0006,-0.0036,-0.0042,-0.0052,-0.0105,-0.0113,-0.0079,-0.0082,-0.0151,-0.0157,-0.0163,-0.0203,-0.0196,-0.0198,-0.02,-0.0263,-0.0263,-0.0264,0,0,0,0,0,0,0.003,0.0026,-0.0013,0.0001,-0.0004,-0.0035,-0.0045,-0.0052,-0.0072,-0.0105,-0.0115,-0.0092,-0.0152,-0.016,-0.0193,-0.0205,-0.0199,-0.0202,-0.0262,-0.0263,-0.0263,-0.0253,0,0,0,0,0,0,0.0031,0.0026,0.0025,0.0002,-0.0004,-0.0029,-0.0044,-0.0052,-0.0067,-0.0073,-0.0119,-0.0128,-0.0153,-0.0189,-0.0195,-0.0208,-0.0203,-0.0262,-0.0263,-0.0263,-0.0253,-0.0253,-0.0253,0,0,0,0,0,0.0032,0.0037,0.0025,0.0021,-0.0007,-0.0029,-0.0034,-0.0061,-0.0067,-0.0082,-0.0109,-0.0127,-0.0197,-0.0191,-0.0198,-0.0212,-0.0262,-0.0262,-0.0263,-0.0253,-0.0253,-0.0253,0,0,0,0,0,0,0.005,0.0031,0.0017,0.0014,-0.0012,-0.0038,-0.0044,-0.0059,-0.0091,-0.01,-0.0129,-0.0139,-0.0173,-0.019,-0.0182,-0.0232,-0.0233,-0.0235,-0.0223,-0.0223,-0.0223,-0.0186,-0.0205,0,0,0,0,0,0.0056,0.0049,0.0026,0.0017,0.0011,-0.0016,-0.0026,-0.0051,-0.0078,-0.0093,-0.0121,-0.0152,-0.0178,-0.0199,-0.0225,-0.0249,-0.0215,-0.0263,-0.0263,-0.0263,-0.0238,-0.0187,-0.0179,-0.0266,-0.0266,-0.0266,0,0,0.0058,0.0049,0.0042,0.002,0.0002,-0.0008,-0.0027,-0.005,-0.0062,-0.0096,-0.0121,-0.0152,-0.0183,-0.0216,-0.0232,-0.0235,-0.0225,-0.0264,-0.0264,-0.0238,-0.0186,-0.0177,-0.0169,-0.0266,-0.0266,-0.0266,0,0,0.0066,0.0052,0.0051,0.0033,0.0007,-0.0008,-0.0013,-0.0045,-0.0065,-0.0095,-0.0119,-0.0147,-0.0195,-0.0214,-0.023,-0.0241,-0.0224,-0.0265,-0.024,-0.0191,-0.0183,-0.0175,-0.0131,-0.0119,-0.0268,-0.0268,-0.0268,0,0.0071,0.0065,0.0045,0.004,0.0033,-0.0004,-0.0007,-0.003,-0.0072,-0.0077,-0.0106,-0.0147,-0.0187,-0.0197,-0.0216,-0.0239,-0.0207,-0.0239,-0.0188,-0.0179,-0.0171,-0.0128,-0.0115,-0.0268,-0.0268,-0.0268,-0.0268,0,0.0083,0.0071,0.0069,0.0053,0.0041,0.0026,0.0,-0.002,-0.0045,-0.0063,-0.0085,-0.0129,-0.0145,-0.0179,-0.0208,-0.0182,-0.0177,-0.0189,-0.018,-0.0161,-0.0118,-0.0104,-0.0267,-0.0268,-0.0268,-0.0268,0,0,0.0109,0.0085,0.0081,0.008,0.0046,0.0042,0.0024,0.001,0.0022,-0.0034,-0.0006,-0.0081,-0.0093,-0.0109,-0.0145,-0.0124,-0.0065,-0.0137,-0.0134,-0.008,0.005,-0.0003,0.0007,-0.0064,-0.0062,-0.006,0.0055,0,0.0121,0.0125,0.0106,0.0103,0.0104,0.0071,0.0068,0.0046,0.003,0.0046,0.0006,0.0004,-0.0069,-0.0074,-0.0063,-0.0063,-0.0027,-0.0094,0.0013,0.0017,-0.0021,0.0022,-0.0004,0.0092,0.0068,0.0071,0.0072,0,0.0138,0.0142,0.0145,0.014,0.0141,0.0129,0.0139,0.0127,0.0128,0.0121,0.0115,0.01,0.01,0.0053,0.0087,0.0048,0.0061,0.0063,0.0067,0.0032,-0.001,0.0069,0.0117,0.0095,0.0093,0.0092,0.009,0,0.0177,0.0169,0.0178,0.0173,0.0162,0.0157,0.0148,0.0142,0.0159,0.0176,0.0211,0.0203,0.0236,0.0227,0.0199,0.0158,0.0268,0.0215,0.0191,0.0187,0.0195,0.0187,0.0289,0.0289,0.0289,0.0289,0.0288,0,0.0198,0.0202,0.0194,0.0198,0.0222,0.019,0.0217,0.0211,0.0233,0.0304,0.0255,0.0343,0.029,0.0331,0.0274,0.0275,0.0331,0.0223,0.0223,0.0192,0.0183,0.0206,0.0195,0.0293,0.0292,0.0291,0.029,0,0.0219,0.0209,0.0231,0.0234,0.0233,0.0246,0.0254,0.0293,0.0292,0.0396,0.0412,0.0476,0.0531,0.0469,0.0498,0.0398,0.0378,0.0377,0.0334,0.0324,0.0247,0.0235,0.0356,0.0355,0.0355,0.0354,0.0354,0,0.0227,0.0239,0.0269,0.03,0.0294,0.0305,0.033,0.0318,0.0381,0.0504,0.0591,0.0671,0.0781,0.0753,0.0588,0.0486,0.0471,0.0379,0.0278,0.0271,0.0259,0.0247,0.0236,0.03,0.0299,0.0298,0.0298,0,0.0254,0.0265,0.0288,0.0384,0.0413,0.0463,0.0501,0.0561,0.0609,0.0733,0.0951,0.1044,0.0977,0.0879,0.0664,0.0565,0.0364,0.0359,0.0421,0.0259,0.022,0.0206,0.0198,0.0292,0.0292,0.0293,0.0293,0.0293,0.0283,0.0305,0.0377,0.0475,0.0545,0.0668,0.0725,0.0826,0.099,0.116,0.1223,0.1318,0.1105,0.0835,0.064,0.0374,0.0391,0.0274,0.0276,0.028,0.0225,0.0184,0.024,0.024,0.024,0.0241,0.0241,0,0.0322,0.0368,0.0474,0.0595,0.0735,0.0752,0.0889,0.0974,0.1216,0.1317,0.1475,0.1293,0.1137,0.0872,0.047,0.0251,0.0221,0.018,0.0186,0.0193,0.0199,0.0139,0.0132,0.0131,0.0131,0.013,0,0,0.0341,0.0446,0.0521,0.078,0.0865,0.102,0.1113,0.1264,0.1353,0.1502,0.1498,0.1471,0.1164,0.0857,0.0565,0.0346,0.0315,0.0294,0.0398,0.0444,0.0453,0.0263,0.018,0,0,0,0,0]}],[{"header":{"parameterUnit":"m.s-1","parameterCategory":2,"la1":30.2991,"la2":30.254,"lo1":-89.0895,"lo2":-89.0444,"dy":0.0017,"dx":0.0017,"nx":28,"ny":28,"refTime":"2024-07-22T03:00:00:Z","depth":"4","parameterNumber":2,"parameterNumberName":"U-component_of_CURRENTS"},"data":[0,0,0,0,0,0,0,0,0,0,0,0,0,0,0,0,0,0,0,0,0,0,0,0,0,0,0,0,0,0,0,0,0,0,0,0,0,0,0,0,0,0,0,0,0,0,0,0,0,0,0,0,0,0,0,0,0,0,0.0638,0.0637,0,0.044,0.0437,0.0434,0.0361,0.0363,0.0364,0.0366,0.0358,0.0357,0.0355,0,0,0,0,0,0,0,0,0,0,0,0,0,0.0786,0.0784,0.0639,0.0637,0.0635,0.044,0.0437,0.0433,0.0361,0.0363,0.0364,0.0366,0.0359,0.0357,0.0355,0,0,0,0,0,0,0,0,0,0,0,0,0,0.066,0.0783,0.0639,0.0583,0.0576,0.0441,0.0436,0.0432,0.036,0.0363,0.0365,0.0367,0.0359,0.0357,0.0355,0.0294,0,0,0.0347,0.0346,0,0,0,0,0,0,0,0,0.0667,0.0653,0.0593,0.0586,0.0579,0.0436,0.0486,0.0399,0.036,0.0433,0.0366,0.0368,0.0406,0.04,0.0342,0.0294,0.0293,0.0347,0.0346,0.0344,0.0344,0,0,0,0,0,0,0,0.0676,0.066,0.055,0.0591,0.0583,0.051,0.0495,0.0467,0.0406,0.0426,0.0423,0.0415,0.0403,0.0344,0.0342,0.0293,0.0347,0.0345,0.0343,0.0342,0.0366,0.0368,0,0,0,0,0,0,0.0725,0.0669,0.0557,0.0546,0.064,0.0507,0.0489,0.0472,0.0401,0.0394,0.0413,0.0412,0.0347,0.0345,0.0342,0.0408,0.0345,0.0342,0.0341,0.0364,0.0366,0.0368,0,0,0,0,0,0,0.0729,0.0716,0.0565,0.0611,0.0588,0.0504,0.0483,0.0467,0.0438,0.0391,0.0386,0.0407,0.0348,0.0345,0.0344,0.0404,0.0341,0.0339,0.0361,0.0364,0.0367,0.0453,0,0,0,0,0,0,0.0733,0.0718,0.0722,0.0614,0.0588,0.0498,0.0481,0.0462,0.0432,0.0429,0.0383,0.0382,0.035,0.0348,0.0342,0.0399,0.0337,0.0358,0.0363,0.0366,0.0448,0.0459,0.0468,0,0,0,0,0,0.0739,0.0712,0.0723,0.0711,0.0596,0.0498,0.0475,0.0417,0.0431,0.0402,0.0392,0.0385,0.037,0.0346,0.0338,0.0397,0.0357,0.0361,0.0366,0.0443,0.0456,0.0468,0,0,0,0,0,0,0.077,0.07,0.071,0.0666,0.0609,0.049,0.0457,0.0434,0.0391,0.0411,0.038,0.0376,0.0394,0.0384,0.0359,0.0419,0.0375,0.0378,0.0436,0.0449,0.0459,0.0457,0.0335,0,0,0,0,0,0.0788,0.0754,0.0689,0.0656,0.0637,0.0562,0.0522,0.0487,0.0437,0.0418,0.0402,0.0402,0.0397,0.0416,0.0386,0.0414,0.0418,0.0458,0.0469,0.0477,0.0474,0.0541,0.0557,0.0383,0.0383,0.0383,0,0,0.0786,0.0752,0.0729,0.0663,0.0614,0.0568,0.054,0.0483,0.0461,0.043,0.0415,0.0414,0.0403,0.0422,0.0437,0.0434,0.053,0.0483,0.0491,0.0482,0.0547,0.0564,0.0579,0.0387,0.0386,0.0386,0,0,0.0746,0.0747,0.0702,0.0665,0.0615,0.0577,0.058,0.05,0.0487,0.0469,0.0459,0.0493,0.0478,0.0487,0.0491,0.0545,0.0559,0.0572,0.0648,0.0715,0.0729,0.0742,0.0772,0.0787,0.0607,0.0607,0.0607,0,0.0759,0.0699,0.0672,0.0629,0.061,0.0597,0.0556,0.0526,0.0466,0.0495,0.0487,0.0518,0.0503,0.0558,0.0582,0.0568,0.0605,0.06,0.0729,0.0741,0.0753,0.0781,0.0796,0.0612,0.0611,0.0611,0.061,0,0.067,0.065,0.0622,0.0585,0.0561,0.052,0.0506,0.0514,0.0537,0.0542,0.06,0.0581,0.063,0.0641,0.0622,0.0723,0.072,0.071,0.0696,0.0776,0.08,0.0814,0.0619,0.0617,0.0615,0.0614,0,0,0.0627,0.0573,0.0566,0.0569,0.0542,0.0512,0.0526,0.0542,0.0605,0.0605,0.0679,0.0688,0.0748,0.0755,0.0767,0.0822,0.0926,0.0825,0.0826,0.0851,0.1075,0.0985,0.0992,0.0966,0.0969,0.0972,0.1058,0,0.0575,0.0488,0.0489,0.0464,0.043,0.0476,0.0508,0.0548,0.0602,0.0681,0.0732,0.0799,0.0777,0.0839,0.0892,0.0917,0.097,0.0903,0.0995,0.0996,0.0906,0.1007,0.0981,0.1069,0.1072,0.1074,0.1076,0,0.0474,0.0447,0.0383,0.0439,0.0442,0.0469,0.0571,0.0595,0.0725,0.0777,0.0883,0.0933,0.103,0.0987,0.1095,0.1072,0.1082,0.1082,0.1086,0.0978,0.0934,0.0972,0.1102,0.11,0.1098,0.1096,0.1095,0,0.0406,0.0384,0.0345,0.0343,0.0395,0.0459,0.0536,0.0657,0.0712,0.0872,0.0954,0.1072,0.1144,0.1196,0.1205,0.1193,0.1287,0.1272,0.1186,0.1179,0.1192,0.1177,0.1331,0.1331,0.1331,0.1331,0.133,0,0.0323,0.031,0.0338,0.0324,0.0404,0.0458,0.0581,0.0681,0.0813,0.0911,0.1035,0.1111,0.1208,0.1269,0.1265,0.1272,0.1352,0.1209,0.1209,0.1225,0.1213,0.1202,0.1186,0.1334,0.1333,0.1333,0.1332,0,0.025,0.0228,0.0234,0.0317,0.0363,0.0443,0.0611,0.0682,0.0838,0.0962,0.1024,0.1177,0.1292,0.1334,0.1403,0.1343,0.1349,0.1312,0.1314,0.131,0.1185,0.1172,0.1278,0.1276,0.1274,0.1272,0.1271,0,0.0195,0.0163,0.0239,0.0278,0.0343,0.0459,0.053,0.0681,0.0743,0.0979,0.1018,0.1198,0.1286,0.1324,0.1362,0.1377,0.133,0.1314,0.1258,0.1197,0.1187,0.1177,0.1167,0.1268,0.1268,0.1267,0.1267,0,0.0141,0.0167,0.0192,0.027,0.035,0.0404,0.0532,0.0569,0.0735,0.087,0.1022,0.1119,0.1231,0.1291,0.1301,0.129,0.133,0.1295,0.1298,0.1246,0.1187,0.1176,0.1168,0.1261,0.1261,0.1262,0.1262,0,0.0128,0.0155,0.0189,0.0278,0.0348,0.0368,0.0428,0.0521,0.0607,0.0857,0.0892,0.1089,0.122,0.1244,0.1247,0.1252,0.1237,0.1166,0.1176,0.1183,0.1108,0.1016,0.1057,0,0,0,0,0,0.0108,0.0127,0.0192,0.0271,0.0338,0.0375,0.0427,0.0467,0.0617,0.0697,0.0805,0.0917,0.103,0.1103,0.1093,0.1178,0.1207,0.1154,0.1119,0.1226,0.1233,0.115,0,0,0,0,0,0,0.0074,0.0126,0.0171,0.025,0.0304,0.0348,0.0366,0.0443,0.049,0.0662,0.0723,0.0863,0.0967,0.1062,0.1093,0.1108,0.1059,0.1254,0.1251,0.1222,0.1228,0.1234,0.1151,0,0,0,0,0]},{"header":{"parameterUnit":"m.s-1","parameterCategory":2,"la1":30.2991,"la2":30.254,"lo1":-89.0895,"lo2":-89.0444,"dy":0.0017,"dx":0.0017,"nx":28,"ny":28,"refTime":"2024-07-22T03:00:00:Z","depth":"4","parameterNumber":3,"parameterNumberName":"V-component_of_CURRENTS"},"data":[0,0,0,0,0,0,0,0,0,0,0,0,0,0,0,0,0,0,0,0,0,0,0,0,0,0,0,0,0,0,0,0,0,0,0,0,0,0,0,0,0,0,0,0,0,0,0,0,0,0,0,0,0,0,0,0,0,0,0.0254,0.0254,0,0.0328,0.0329,0.033,0.0365,0.0365,0.0365,0.0365,0.047,0.0472,0.0475,0,0,0,0,0,0,0,0,0,0,0,0,0,0.0192,0.0192,0.0254,0.0254,0.0255,0.0328,0.0329,0.033,0.0365,0.0365,0.0365,0.0365,0.0469,0.0472,0.0476,0,0,0,0,0,0,0,0,0,0,0,0,0,0.0238,0.0192,0.0253,0.0281,0.0284,0.0327,0.0329,0.033,0.0365,0.0365,0.0365,0.0365,0.0468,0.0472,0.0476,0.0506,0,0,0.0489,0.0491,0,0,0,0,0,0,0,0,0.0235,0.024,0.0276,0.0279,0.0283,0.0336,0.0345,0.039,0.0365,0.0335,0.0365,0.0365,0.0427,0.0435,0.045,0.0511,0.0515,0.049,0.0492,0.0494,0.0495,0,0,0,0,0,0,0,0.0232,0.0238,0.0284,0.0277,0.0281,0.0306,0.0312,0.0354,0.0383,0.0338,0.0341,0.0347,0.0429,0.0446,0.0453,0.0517,0.049,0.0493,0.0496,0.0498,0.0591,0.0591,0,0,0,0,0,0,0.0219,0.0234,0.0282,0.0286,0.0257,0.0307,0.0314,0.032,0.0382,0.039,0.0347,0.0349,0.0439,0.0448,0.0457,0.0524,0.0494,0.0498,0.0501,0.0591,0.0591,0.0591,0,0,0,0,0,0,0.0217,0.0222,0.0279,0.0261,0.027,0.0308,0.0315,0.0322,0.0348,0.0388,0.0398,0.0368,0.0439,0.0451,0.0521,0.0527,0.05,0.0504,0.0592,0.0591,0.0591,0.064,0,0,0,0,0,0,0.0215,0.0221,0.0226,0.026,0.027,0.0311,0.0315,0.0323,0.0352,0.0354,0.0409,0.0418,0.044,0.0514,0.0525,0.0532,0.0507,0.0592,0.0592,0.0591,0.0638,0.0641,0.0644,0,0,0,0,0,0.0213,0.0228,0.0225,0.0231,0.0274,0.0311,0.032,0.0346,0.0353,0.0369,0.0419,0.0417,0.0518,0.052,0.0532,0.054,0.0592,0.0592,0.0591,0.0637,0.0641,0.0644,0,0,0,0,0,0,0.0211,0.0234,0.0232,0.0254,0.0278,0.0317,0.0339,0.0353,0.0404,0.0412,0.0447,0.0461,0.0519,0.052,0.052,0.0559,0.0542,0.0544,0.0572,0.0576,0.0578,0.0561,0.0511,0,0,0,0,0,0.0208,0.0221,0.0246,0.0263,0.0276,0.0306,0.0327,0.0343,0.0388,0.0409,0.045,0.0484,0.0524,0.0545,0.0581,0.062,0.0571,0.0619,0.0622,0.0624,0.0614,0.0528,0.0522,0.059,0.059,0.059,0,0,0.0212,0.0225,0.0233,0.0262,0.0285,0.0326,0.032,0.0354,0.039,0.0415,0.0486,0.0512,0.054,0.0587,0.0607,0.0591,0.0585,0.0624,0.0627,0.0614,0.0527,0.052,0.0514,0.059,0.059,0.059,0,0,0.024,0.0238,0.0266,0.029,0.0323,0.0342,0.0353,0.0397,0.0416,0.0484,0.0502,0.0527,0.0604,0.0608,0.0624,0.0656,0.0611,0.0662,0.066,0.0578,0.0571,0.0565,0.0518,0.0507,0.0652,0.0652,0.0652,0,0.0244,0.0283,0.0281,0.0322,0.0348,0.0353,0.0398,0.0424,0.0486,0.0498,0.0512,0.058,0.0606,0.0633,0.0648,0.0662,0.0618,0.0655,0.0581,0.0573,0.0565,0.0518,0.0505,0.0654,0.0654,0.0654,0.0654,0,0.0304,0.0335,0.0357,0.0405,0.0427,0.0467,0.0492,0.0516,0.0538,0.0557,0.0592,0.0618,0.0645,0.0649,0.0675,0.0636,0.0626,0.0604,0.0573,0.0561,0.0513,0.0499,0.0658,0.0657,0.0656,0.0656,0,0,0.0317,0.0385,0.0398,0.0426,0.0474,0.0499,0.0543,0.0576,0.0596,0.0625,0.0636,0.0686,0.0671,0.0683,0.0685,0.0614,0.0543,0.0592,0.0586,0.0548,0.0381,0.0395,0.038,0.0504,0.0502,0.0499,0.0378,0,0.0369,0.0453,0.0475,0.055,0.0587,0.0596,0.0641,0.0661,0.0669,0.0679,0.0654,0.0688,0.0691,0.0705,0.0634,0.0577,0.0503,0.0579,0.0395,0.039,0.0404,0.0362,0.049,0.0367,0.0363,0.0361,0.0359,0,0.0428,0.0469,0.0555,0.0609,0.0629,0.0689,0.0718,0.0757,0.0752,0.0747,0.073,0.0717,0.0671,0.0649,0.051,0.0561,0.0474,0.0404,0.0397,0.0377,0.0375,0.0373,0.0332,0.0334,0.0336,0.0338,0.0339,0,0.0438,0.0524,0.059,0.0616,0.0685,0.0731,0.0778,0.0795,0.0813,0.0792,0.079,0.0719,0.0698,0.0566,0.0459,0.0477,0.0266,0.0268,0.0191,0.0192,0.0197,0.0204,0.0121,0.0121,0.0121,0.0122,0.0122,0,0.0482,0.053,0.0614,0.0657,0.0737,0.0774,0.0845,0.0866,0.0875,0.0882,0.0844,0.0811,0.0669,0.0551,0.0434,0.0277,0.0245,0.0176,0.0147,0.0225,0.0237,0.0188,0.0197,0.0117,0.0118,0.0119,0.012,0,0.0488,0.0544,0.0621,0.0717,0.0754,0.0821,0.0916,0.0943,0.0964,0.0959,0.0959,0.0867,0.0725,0.0574,0.0348,0.0266,0.0099,0.0041,0.0151,0.0133,0.0089,0.0102,-0.0051,-0.0052,-0.0052,-0.0053,-0.0054,0,0.0503,0.055,0.0667,0.072,0.0785,0.088,0.0936,0.0987,0.1003,0.0986,0.0973,0.086,0.0777,0.0477,0.0316,0.0081,0.005,-0.0024,0.0018,0.0077,0.0064,0.0079,0.0093,-0.0055,-0.0055,-0.0055,-0.0055,0,0.0517,0.0571,0.0627,0.0751,0.0841,0.0909,0.1002,0.1008,0.1036,0.105,0.0963,0.0836,0.0666,0.0457,0.0277,0.0108,0.0034,-0.0032,-0.0031,0.0008,0.007,0.0062,0.0076,-0.0058,-0.0057,-0.0057,-0.0057,0,0.0518,0.0571,0.0664,0.0766,0.0863,0.0927,0.0968,0.0986,0.1006,0.099,0.0943,0.0792,0.0698,0.0468,0.0294,0.0142,0.0115,0.0076,0.0071,0.0072,0.0154,0.0254,0.0138,0,0,0,0,0,0.0516,0.0579,0.0671,0.0782,0.087,0.0938,0.0995,0.1015,0.1032,0.0969,0.0963,0.0805,0.0571,0.0467,0.0313,0.0284,0.009,0.0101,0.0042,-0.0072,-0.0069,0.0008,0,0,0,0,0,0,0.0516,0.0596,0.0659,0.0765,0.0842,0.094,0.0978,0.0985,0.0949,0.0942,0.0808,0.0783,0.0543,0.0658,0.0315,0.0273,0.0218,0.0004,0.0001,-0.0073,-0.0071,-0.0068,0.0012,0,0,0,0,0]}]]